Alexandria, MN

9:45 AM CST on December 16, 2017 (GMT -0600)
Chandler

Weather History for KAXN - December, 2013

Change the Weather History Date:

Thursday, December 12, 2013

  Actual Average Record
Temperature  
Mean Temperature 4 °F -  
Max Temperature 14 °F 23 °F 46 °F (1998)
Min Temperature -5 °F 6 °F -20 °F (2000)
Degree Days  
Heating Degree Days 60    
Moisture  
Dew Point 2 °F    
Average Humidity 79    
Maximum Humidity 88    
Minimum Humidity 67    
Precipitation  
Precipitation 0.00 in - - ()
Sea Level Pressure  
Sea Level Pressure 30.26 in    
Wind  
Wind Speed 4 mph (West)    
Max Wind Speed 7 mph    
Max Gust Speed -    
Visibility 10 miles    
Events      
Averages and records for this station are not official NWS values.
T = Trace of Precipitation, MM = Missing Value Source: NWS Daily Summary

Daily Weather History Graph

Daily Weather History Graph

Search for Another Location

Airport or City:

Trip Planner

Search our weather history database for the weather conditions in past years. The results will help you decide how hot, cold, wet, or windy it might be!

Date:

Astronomy

Dec. 12, 2013 Rise Set
Actual Time 7:54 AM CST 4:36 PM CST
Civil Twilight 7:19 AM CST 5:11 PM CST
Nautical Twilight 6:41 AM CST 5:49 PM CST
Astronomical Twilight 6:05 AM CST 6:25 PM CST
Moon 1:54 PM CST (12/12) 3:06 AM CST (12/12)
Length of Visible Light 9h 51m
Length of Day
8h 42m
Waxing Gibbous, 80% of the Moon is Illuminated
Dec 12
Waxing Gibbous
Dec 17
Full
Dec 25
Last Quarter
Jan 1
New
Jan 7
First Quarter

Hourly Weather History & Observations

Time (CST) Temp. Windchill Dew Point Humidity Pressure Visibility Wind Dir Wind Speed Gust Speed Precip Events Conditions
12:53 AM -0.9 °F -8.9 °F -6.0 °F 79% 30.29 in 10.0 mi SSW 3.5 mph - N/A   Clear
1:53 AM -2.9 °F -15.0 °F -7.1 °F 82% 30.28 in 10.0 mi WSW 5.8 mph - N/A   Clear
2:53 AM -5.1 °F -15.8 °F -8.0 °F 87% 30.29 in 10.0 mi WSW 4.6 mph - N/A   Clear
3:53 AM -2.0 °F - -5.1 °F 87% 30.29 in 10.0 mi Calm Calm - N/A   Clear
4:53 AM -0.9 °F -12.7 °F -5.1 °F 83% 30.30 in 10.0 mi WSW 5.8 mph - N/A   Partly Cloudy
5:53 AM 3.9 °F -8.2 °F -0.0 °F 84% 30.29 in 10.0 mi WNW 6.9 mph - N/A   Partly Cloudy
6:53 AM 3.0 °F -8.0 °F -0.9 °F 84% 30.30 in 10.0 mi WNW 5.8 mph - N/A   Clear
7:53 AM 3.0 °F -4.4 °F -0.9 °F 84% 30.30 in 10.0 mi NW 3.5 mph - N/A   Clear
8:53 AM 1.9 °F -7.6 °F -0.9 °F 88% 30.31 in 10.0 mi WSW 4.6 mph - N/A   Clear
9:53 AM 3.9 °F -3.4 °F -0.0 °F 84% 30.32 in 10.0 mi WSW 3.5 mph - N/A   Clear
10:53 AM 7.0 °F -4.5 °F 1.9 °F 80% 30.32 in 10.0 mi WSW 6.9 mph - N/A   Overcast
11:53 AM 10.0 °F -0.9 °F 1.9 °F 70% 30.29 in 10.0 mi West 6.9 mph - N/A   Overcast
12:53 PM 12.0 °F 4.1 °F 3.9 °F 70% 30.26 in 10.0 mi WSW 4.6 mph - N/A   Overcast
1:53 PM 14.0 °F 8.2 °F 5.0 °F 67% 30.25 in 10.0 mi North 3.5 mph - N/A   Overcast
2:53 PM 12.9 °F 3.8 °F 5.0 °F 71% 30.25 in 10.0 mi West 5.8 mph - N/A   Overcast
3:53 PM 14.0 °F 8.2 °F 5.0 °F 67% 30.24 in 10.0 mi WNW 3.5 mph - N/A   Overcast
4:53 PM 14.0 °F 6.5 °F 6.1 °F 71% 30.24 in 10.0 mi SW 4.6 mph - N/A   Overcast
5:53 PM 12.9 °F 6.9 °F 6.1 °F 74% 30.21 in 10.0 mi SSW 3.5 mph - N/A   Partly Cloudy
6:53 PM 10.9 °F - 5.0 °F 77% 30.20 in 10.0 mi Calm Calm - N/A   Clear
7:53 PM 10.9 °F - 6.1 °F 81% 30.20 in 10.0 mi Calm Calm - N/A   Clear
8:53 PM 12.0 °F - 6.1 °F 77% 30.22 in 10.0 mi Calm Calm - N/A   Clear
9:53 PM 9.0 °F 2.4 °F 5.0 °F 84% 30.22 in 10.0 mi North 3.5 mph - N/A   Partly Cloudy
10:32 PM 10.4 °F 2.2 °F 5.0 °F 79% 30.10 in 10.0 mi North 4.6 mph - N/A   Mostly Cloudy
10:53 PM 10.9 °F 2.9 °F 6.1 °F 81% 30.20 in 10.0 mi North 4.6 mph - N/A   Overcast
11:53 PM 12.0 °F 2.7 °F 6.1 °F 77% 30.21 in 10.0 mi NE 5.8 mph - N/A   Overcast